• In Latvia
  • List of Countries
  • For 7 days
  • Water Temperature
  • Satellite Maps
  • Weather Map
  • Weather Widgets
  • user-avatar
    Login

    Hourly Weather Dzhalalkuduk

    Today, 26 May, Saturday

    Time Temperature Precipitation Wind Pressure Humidity
    00:00 +21°C° 0 mm 3 mps 704 mmHg 40%
    01:00 +21°C° 0 mm 3 mps 704 mmHg 39%
    02:00 +20°C° 0 mm 3 mps 704 mmHg 37%
    03:00 +20°C° 0 mm 3 mps 704 mmHg 37%
    04:00 +20°C° 0 mm 3 mps 704 mmHg 36%
    05:00 +19°C° 0 mm 3 mps 704 mmHg 38%
    06:00 +21°C° 0 mm 3 mps 704 mmHg 37%
    07:00 +24°C° 0 mm 2 mps 704 mmHg 37%
    08:00 +26°C° 0 mm 2 mps 704 mmHg 37%
    09:00 +28°C° 0 mm 2 mps 704 mmHg 34%
    10:00 +29°C° 0 mm 2 mps 704 mmHg 31%
    11:00 +31°C° 0 mm 1 mps 704 mmHg 28%
    12:00 +31°C° 0 mm 1 mps 704 mmHg 27%
    13:00 +32°C° 0 mm 1 mps 704 mmHg 26%
    14:00 +33°C° 0 mm 1 mps 703 mmHg 26%
    15:00 +33°C° 0.1 mm 1 mps 703 mmHg 26%
    16:00 +32°C° 0.1 mm 1 mps 703 mmHg 27%
    17:00 +32°C° 0.1 mm 1 mps 703 mmHg 28%
    18:00 +30°C° 0.1 mm 1 mps 703 mmHg 31%
    19:00 +28°C° 0.1 mm 2 mps 703 mmHg 34%
    20:00 +26°C° 0.1 mm 3 mps 703 mmHg 37%
    21:00 +25°C° 0 mm 3 mps 703 mmHg 38%
    22:00 +25°C° 0 mm 3 mps 704 mmHg 39%
    23:00 +24°C° 0 mm 3 mps 704 mmHg 40%

    Tomorrow, 27 May, Sunday

    Time Temperature Precipitation Wind Pressure Humidity
    00:00 +22°C° 0 mm 3 mps 704 mmHg 39%
    01:00 +22°C° 0 mm 3 mps 703 mmHg 38%
    02:00 +21°C° 0 mm 3 mps 703 mmHg 37%
    03:00 +21°C° 0 mm 3 mps 703 mmHg 36%
    04:00 +21°C° 0 mm 3 mps 703 mmHg 35%
    05:00 +20°C° 0 mm 3 mps 703 mmHg 35%
    06:00 +23°C° 0 mm 2 mps 703 mmHg 35%
    07:00 +25°C° 0 mm 2 mps 704 mmHg 35%
    08:00 +27°C° 0 mm 1 mps 704 mmHg 35%
    09:00 +28°C° 0 mm 1 mps 704 mmHg 32%
    10:00 +30°C° 0 mm 1 mps 704 mmHg 29%
    11:00 +31°C° 0 mm 1 mps 704 mmHg 27%
    12:00 +32°C° 0 mm 1 mps 704 mmHg 26%
    13:00 +32°C° 0 mm 1 mps 703 mmHg 26%
    14:00 +33°C° 0 mm 1 mps 703 mmHg 25%
    15:00 +33°C° 0 mm 1 mps 703 mmHg 26%
    16:00 +33°C° 0 mm 1 mps 703 mmHg 27%
    17:00 +32°C° 0 mm 1 mps 703 mmHg 27%
    18:00 +31°C° 0.1 mm 2 mps 703 mmHg 31%
    19:00 +29°C° 0.1 mm 3 mps 703 mmHg 35%
    20:00 +27°C° 0.1 mm 4 mps 703 mmHg 38%
    21:00 +26°C° 0.4 mm 5 mps 703 mmHg 42%
    22:00 +25°C° 0.4 mm 5 mps 703 mmHg 45%
    23:00 +25°C° 0.4 mm 5 mps 703 mmHg 48%

    Day after tomorrow, 28 May, Monday

    Time Temperature Precipitation Wind Pressure Humidity
    00:00 +23°C° 0.1 mm 5 mps 703 mmHg 49%
    01:00 +23°C° 0.1 mm 5 mps 703 mmHg 50%
    02:00 +22°C° 0.1 mm 5 mps 703 mmHg 51%
    03:00 +21°C° 0 mm 4 mps 703 mmHg 52%
    04:00 +20°C° 0 mm 4 mps 703 mmHg 52%
    05:00 +20°C° 0 mm 3 mps 703 mmHg 53%
    06:00 +19°C° 0.2 mm 4 mps 703 mmHg 57%
    07:00 +19°C° 0.2 mm 5 mps 704 mmHg 61%
    08:00 +17°C° 0.2 mm 6 mps 704 mmHg 65%
    09:00 +16°C° 1.9 mm 5 mps 704 mmHg 69%
    10:00 +15°C° 1.9 mm 4 mps 705 mmHg 74%
    11:00 +16°C° 1.9 mm 3 mps 705 mmHg 79%
    12:00 +17°C° 0.4 mm 3 mps 706 mmHg 73%
    13:00 +18°C° 0.4 mm 3 mps 706 mmHg 68%
    14:00 +18°C° 0.4 mm 3 mps 707 mmHg 62%
    15:00 +19°C° 0 mm 2 mps 708 mmHg 58%
    16:00 +19°C° 0 mm 2 mps 708 mmHg 54%
    17:00 +20°C° 0 mm 2 mps 708 mmHg 49%
    18:00 +19°C° 0 mm 2 mps 708 mmHg 53%
    19:00 +17°C° 0 mm 3 mps 708 mmHg 56%
    20:00 +16°C° 0 mm 3 mps 708 mmHg 59%
    21:00 +16°C° 0 mm 3 mps 708 mmHg 57%
    22:00 +14°C° 0 mm 3 mps 708 mmHg 54%
    23:00 +14°C° 0 mm 3 mps 707 mmHg 52%

    29 May, Tuesday

    Time Temperature Precipitation Wind Pressure Humidity
    00:00 +14°C° 0 mm 3 mps 707 mmHg 50%
    01:00 +13°C° 0 mm 3 mps 707 mmHg 48%
    02:00 +13°C° 0 mm 3 mps 706 mmHg 47%
    03:00 +13°C° 0 mm 3 mps 706 mmHg 46%
    04:00 +13°C° 0 mm 3 mps 705 mmHg 46%
    05:00 +13°C° 0 mm 2 mps 705 mmHg 45%
    06:00 +15°C° 0 mm 2 mps 705 mmHg 43%
    07:00 +18°C° 0 mm 2 mps 705 mmHg 41%
    08:00 +21°C° 0 mm 1 mps 705 mmHg 39%
    09:00 +22°C° 0 mm 1 mps 704 mmHg 35%
    10:00 +24°C° 0 mm 1 mps 704 mmHg 32%
    11:00 +25°C° 0 mm 1 mps 704 mmHg 29%
    12:00 +26°C° 0 mm 2 mps 703 mmHg 28%
    13:00 +27°C° 0 mm 2 mps 703 mmHg 26%
    14:00 +27°C° 0 mm 2 mps 703 mmHg 25%
    15:00 +27°C° 0 mm 1 mps 702 mmHg 26%
    16:00 +27°C° 0 mm 1 mps 702 mmHg 26%
    17:00 +27°C° 0 mm 1 mps 702 mmHg 27%
    18:00 +25°C° 0 mm 1 mps 702 mmHg 29%
    19:00 +23°C° 0 mm 2 mps 703 mmHg 32%
    20:00 +20°C° 0 mm 2 mps 703 mmHg 35%
    21:00 +20°C° 0 mm 2 mps 703 mmHg 36%
    22:00 +19°C° 0 mm 2 mps 703 mmHg 38%
    23:00 +18°C° 0 mm 3 mps 703 mmHg 39%

    30 May, Wednesday

    Time Temperature Precipitation Wind Pressure Humidity
    00:00 +18°C° 0 mm 3 mps 703 mmHg 39%
    01:00 +18°C° 0 mm 3 mps 703 mmHg 38%
    02:00 +18°C° 0 mm 2 mps 703 mmHg 38%
    03:00 +17°C° 0 mm 2 mps 703 mmHg 39%
    04:00 +17°C° 0 mm 2 mps 703 mmHg 40%
    05:00 +17°C° 0 mm 2 mps 703 mmHg 40%
    06:00 +19°C° 0 mm 2 mps 703 mmHg 40%
    07:00 +20°C° 0 mm 2 mps 703 mmHg 40%
    08:00 +22°C° 0 mm 3 mps 704 mmHg 40%
    09:00 +24°C° 0 mm 3 mps 704 mmHg 38%
    10:00 +25°C° 0 mm 3 mps 704 mmHg 36%
    11:00 +26°C° 0 mm 3 mps 704 mmHg 34%
    12:00 +27°C° 0.1 mm 3 mps 704 mmHg 32%
    13:00 +27°C° 0.1 mm 3 mps 704 mmHg 30%
    14:00 +28°C° 0.1 mm 4 mps 704 mmHg 29%
    15:00 +28°C° 0.1 mm 4 mps 704 mmHg 29%
    16:00 +28°C° 0.1 mm 4 mps 705 mmHg 30%
    17:00 +28°C° 0.1 mm 5 mps 705 mmHg 30%
    18:00 +26°C° 0 mm 4 mps 706 mmHg 33%
    19:00 +23°C° 0 mm 4 mps 706 mmHg 35%
    20:00 +21°C° 0 mm 3 mps 706 mmHg 37%
    21:00 +20°C° 0 mm 3 mps 707 mmHg 39%
    22:00 +19°C° 0 mm 3 mps 707 mmHg 41%
    23:00 +18°C° 0 mm 2 mps 707 mmHg 42%

    31 May, Thursday

    Time Temperature Precipitation Wind Pressure Humidity
    00:00 +18°C° 0 mm 2 mps 707 mmHg 44%
    01:00 +17°C° 0 mm 2 mps 706 mmHg 45%
    02:00 +17°C° 0 mm 2 mps 706 mmHg 46%
    03:00 +16°C° 0 mm 2 mps 706 mmHg 47%
    04:00 +16°C° 0 mm 2 mps 706 mmHg 48%
    05:00 +16°C° 0 mm 2 mps 706 mmHg 50%
    06:00 +18°C° 0 mm 2 mps 707 mmHg 47%
    07:00 +19°C° 0 mm 2 mps 707 mmHg 44%
    08:00 +22°C° 0 mm 1 mps 707 mmHg 41%
    09:00 +24°C° 0 mm 2 mps 707 mmHg 39%
    10:00 +25°C° 0 mm 2 mps 707 mmHg 36%
    11:00 +26°C° 0 mm 2 mps 706 mmHg 34%
    12:00 +27°C° 0 mm 2 mps 706 mmHg 33%
    13:00 +28°C° 0 mm 2 mps 706 mmHg 33%
    14:00 +28°C° 0 mm 2 mps 706 mmHg 32%
    15:00 +28°C° 0.1 mm 2 mps 706 mmHg 32%
    16:00 +29°C° 0.1 mm 1 mps 706 mmHg 33%
    17:00 +29°C° 0.1 mm 1 mps 706 mmHg 33%
    18:00 +27°C° 0.1 mm 1 mps 706 mmHg 36%
    19:00 +25°C° 0.1 mm 2 mps 706 mmHg 39%
    20:00 +23°C° 0.1 mm 2 mps 706 mmHg 43%
    21:00 +23°C° 0 mm 2 mps 706 mmHg 44%
    22:00 +21°C° 0 mm 3 mps 706 mmHg 45%
    23:00 +20°C° 0 mm 3 mps 706 mmHg 46%
    Show more